This is the latest recevied weather packets stored in our database for station/object KD7CTY. If no packets are shown the sender has not sent any weather packets the latest 10 day(s).
| Time | Temp. | Humidity | Pressure | Rain* | Wind** | Luminosity | Snow |
|---|---|---|---|---|---|---|---|
| 1777157095 | 18.89° C | 26% | 1009.2 hPa | 0 mm | - | 599 W/m² | - |
| 1777156791 | 18.89° C | 23% | 1009.4 hPa | 0 mm | - | 614 W/m² | - |
| 1777156486 | 18.89° C | 23% | 1009.3 hPa | 0 mm | - | 625 W/m² | - |
| 1777156183 | 18.89° C | 24% | 1009.7 hPa | 0 mm | - | 636 W/m² | - |
| 1777155879 | 18.89° C | 26% | 1009.7 hPa | 0 mm | - | 641 W/m² | - |
| 1777155574 | 18.89° C | 24% | 1009.6 hPa | 0 mm | - | 637 W/m² | - |
| 1777155272 | 19.44° C | 23% | 1009.8 hPa | 0 mm | - | 634 W/m² | - |
| 1777154969 | 18.33° C | 31% | 1009.9 hPa | 0 mm | - | 647 W/m² | - |
| 1777154666 | 18.33° C | 25% | 1009.9 hPa | 0 mm | - | 656 W/m² | - |
| 1777154362 | 18.33° C | 24% | 1009.9 hPa | 0 mm | - | 670 W/m² | - |
| 1777154058 | 18.89° C | 26% | 1009.9 hPa | 0 mm | - | 678 W/m² | - |
| 1777153754 | 18.89° C | 27% | 1010 hPa | 0 mm | - | 683 W/m² | - |
| 1777153450 | 18.89° C | 28% | 1010.1 hPa | 0 mm | - | 694 W/m² | - |
| 1777153146 | 18.89° C | 30% | 1010.1 hPa | 0 mm | - | 684 W/m² | - |
| 1777152843 | 18.33° C | 26% | 1010.1 hPa | 0 mm | - | 687 W/m² | - |
| 1777152539 | 18.33° C | 25% | 1010.4 hPa | 0 mm | - | 699 W/m² | - |
| 1777152236 | 18.89° C | 26% | 1010.2 hPa | 0 mm | - | 700 W/m² | - |
| 1777151930 | 18.33° C | 25% | 1010 hPa | 0 mm | - | 700 W/m² | - |
| 1777151627 | 18.89° C | 27% | 1010.4 hPa | 0 mm | - | 698 W/m² | - |
| 1777151324 | 18.33° C | 33% | 1010.2 hPa | 0 mm | - | 698 W/m² | - |
| 1777151024 | 18.33° C | 27% | 1010 hPa | 0 mm | - | 696 W/m² | - |
| 1777150724 | 18.33° C | 27% | 1010.2 hPa | 0 mm | - | 701 W/m² | - |
| 1777150420 | 18.33° C | 28% | 1010.2 hPa | 0 mm | - | 699 W/m² | - |
| 1777150117 | 18.33° C | 31% | 1010.2 hPa | 0 mm | - | 695 W/m² | - |
| 1777149812 | 18.33° C | 27% | 1010.6 hPa | 0 mm | - | 693 W/m² | - |
* Rain latest hour (hover to see other rain measurements)
** Current wind speed in m/s (hover to see current wind gust speed)